|
|
Asteroid 2012 RJ15
(Preview)
Orbital elements:
2012 RJ15 Earth MOID = 0.0872 AU
Epoch 2012 Sept. 30.0 TT = JDT 2456200.5 MPC
M 235.84820 (2000.0) P Q
n 0.97475975 Peri. 320.56474 -0.72951083 -0.68332538
a 1.0074055 Node 175.93541 +0.68393638 -0.72921442
e 0.1239864 Incl. 24.74658 +0.00670701 +0.03623187
P 1.01 H 23...
|
Blobrana
|
4
|
|
|
|
|
Asteroid 11714 Mikebrown
(Preview)
Asteroid 11714 Mikebrown makes its closest approach to the Earth (1.039 AU) on the 29th August, 2012. 11714 Mikebrown (1998 HQ51) is a main-belt asteroid discovered by Lowell Observatory. It is named after the astronomer Michael E. Brown. Read more
|
Blobrana
|
3
|
|
|
|
|
Asteroid 2012 FG58
(Preview)
Orbital elements:
2012 FG58 PHA, Earth MOID = 0.0364 AU
Epoch 2012 Mar. 14.0 TT = JDT 2456000.5 MPC
M 337.72084 (2000.0) P Q
n 0.31506007 Peri. 220.42337 -0.29533682 +0.94685326
a 2.1389820 Node 32.98631 -0.80503771 -0.17479369
e 0.5465878 Incl. 13.53891 -0.51448075 -0.27002976
P 3.13 H...
|
Blobrana
|
1
|
|
|
|
|
Asteroid 2012 HY1
(Preview)
Orbital elements:
2012 HY1 Earth MOID = 0.0682 AU
Epoch 2012 Mar. 14.0 TT = JDT 2456000.5 MPC
M 309.21285 (2000.0) P Q
n 0.30037775 Peri. 96.07269 +0.63709104 +0.76942263
a 2.2081278 Node 213.64329 -0.73588669 +0.58946130
e 0.5613644 Incl. 4.74897 -0.22931591 +0.24601664
P 3.28 H 19.9 G 0...
|
Blobrana
|
1
|
|
|
|
|
Yarkovsky effect
(Preview)
Title: Near Earth Asteroids with measurable Yarkovsky effect Authors: D. Farnocchia, S. R. Chesley, D. Vokrouhlicky, A. Milani, F. Spoto We seek evidence of the Yarkovsky effect among Near Earth Asteroids (NEAs) by measuring the Yarkovsky-related orbital drift from the orbital fit. To prevent...
|
Blobrana
|
1
|
|
|
|
|
Asteroid 2012 BJ86
(Preview)
Orbital elements:
2012 BJ86 PHA, Earth MOID = 0.0033 AU
Epoch 2012 Mar. 14.0 TT = JDT 2456000.5 MPC
M 33.11132 (2000.0) P Q
n 0.35226295 Peri. 99.36795 +0.74389292 -0.66800855
a 1.9855983 Node 302.54849 +0.60361721 +0.68425149
e 0.6390652 Incl. 1.33883 +0.28682675 +0.29251407
P 2.80 H 21...
|
Blobrana
|
2
|
|
|
|
|
Asteroid 2012 LR1
(Preview)
Orbital elements:
2012 LR1 PHA, Earth MOID = 0.0050 AU
Epoch 2012 June 2.0 TT = JDT 2456080.5 MPC
M 58.85361 (2000.0) P Q
n 0.64117654 Peri. 66.26421 -0.62576814 -0.40550639
a 1.3319389 Node 83.14708 +0.19658915 -0.90865854
e 0.3800853 Incl. 42.15294 +0.75482908 -0.09951997
P 1.54 H 20.5...
|
Blobrana
|
1
|
|
|
|
|
Asteroid 2012 XL16
(Preview)
Orbital elements:
2012 XL16 Earth MOID = 0.0185 AU
Epoch 2012 Sept. 30.0 TT = JDT 2456200.5 MPC
M 28.21005 (2000.0) P Q
n 1.00574128 Peri. 58.43874 +0.74854210 +0.66097113
a 0.9866093 Node 260.13039 -0.62512945 +0.67681911
e 0.1787490 Incl. 3.07987 -0.22112867 +0.32408804
P 0.98 H 25.6 G...
|
Blobrana
|
4
|
|
|
|
|
Asteroid 2012 VA26
(Preview)
Orbital elements:
2012 VA26 Earth MOID = 0.0130 AU
Epoch 2012 Sept. 30.0 TT = JDT 2456200.5 MPC
M 323.72553 (2000.0) P Q
n 0.48041107 Peri. 47.93981 -0.02397656 -0.99241489
a 1.6145843 Node 43.88375 +0.85816540 -0.08229843
e 0.4356660 Incl. 10.01682 +0.51281310 +0.09132172
P 2.05 H 26.6...
|
Blobrana
|
2
|
|
|
|
|
Asteroid 2012 VE26
(Preview)
Orbital elements:
2012 VE26 Earth MOID = 0.0012 AU
Epoch 2012 Sept. 30.0 TT = JDT 2456200.5 MPC
M 316.28744 (2000.0) P Q
n 0.49349021 Peri. 94.77189 -0.75736168 -0.65152090
a 1.5859288 Node 44.58036 +0.57161105 -0.69394592
e 0.6331404 Incl. 3.58265 +0.31569620 -0.30652825
P 2.00 H 28.4 G...
|
Blobrana
|
1
|
|
|
|
|
Asteroid 2012 XS111
(Preview)
Orbital elements:
2012 XS111 PHA, Earth MOID = 0.0481 AU
Epoch 2012 Sept. 30.0 TT = JDT 2456200.5 MPC
M 89.11299 (2000.0) P Q
n 1.45093901 Peri. 191.82561 -0.27471137 +0.95426266
a 0.7727457 Node 62.32593 -0.87096923 -0.19498021
e 0.5022238 Incl. 7.65491 -0.40736503 -0.22663958
P 0.68 H...
|
Blobrana
|
1
|
|
|
|
|
Asteroid 2012 VG5
(Preview)
Orbital elements:
2012 VG5 Earth MOID = 0.0535 AU
Epoch 2012 Sept. 30.0 TT = JDT 2456200.5 MPC
M 338.58378 (2000.0) P Q
n 0.49005363 Peri. 186.37754 +0.64543592 -0.73965440
a 1.5933345 Node 223.64732 +0.71242144 +0.67294685
e 0.3453990 Incl. 16.02923 +0.27544176 -0.00734183
P 2.01 H 24....
|
Blobrana
|
1
|
|
|
|
|
Asteroid 2012 VS76
(Preview)
Orbital elements:
2012 VS76 Earth MOID = 0.0019 AU
Epoch 2012 Sept. 30.0 TT = JDT 2456200.5 MPC
M 243.92350 (2000.0) P Q
n 1.00434772 Peri. 284.37994 -0.97547974 -0.21977344
a 0.9875217 Node 242.92547 +0.20668538 -0.89635306
e 0.3869827 Incl. 0.75844 +0.07563360 -0.38503353
P 0.98 H 27....
|
Blobrana
|
2
|
|
|
|
|
Asteroid 2010 WT
(Preview)
The 53 - 120 metre wide asteroid 2010 WT will make a close pass (48.7 lunar distances, 0.1251 AU), travelling at 6.53 km/second, to the Earth-Moon system on the 7th November, 2012 @ 05:03 UT ±17:08. See more The Lunar Distance (LD), the distance between Earth and the Moon, equals 384,401 km, (or 0.002...
|
Blobrana
|
1
|
|
|
|
|
Asteroid 2012 CO46
(Preview)
Orbital elements:
2012 CO46 Earth MOID = 0.0906 AU
Epoch 2012 Mar. 14.0 TT = JDT 2456000.5 MPC
M 89.13821 (2000.0) P Q
n 0.65230346 Peri. 63.97885 +0.58935541 -0.80779818
a 1.3167488 Node 349.88765 +0.71687296 +0.52923189
e 0.1932611 Incl. 3.61132 +0.37249613 +0.25956831
P 1.51 H 23.1 G 0...
|
Blobrana
|
1
|
|
|